Simultaneous Nadir Overpasses (SNOs) Predictions

Prediction of SNOs between GOES-16 and NOAA-20 Satellite Orbit:

Table of predicted SNOs for the next 14.0 days since TLE Epoch: 1/29/2022
Index Date Time (GOES-16) GOES-16 Lat,Lon NOAA-20 Lat,Lon Distance(km) Time Diff (sec)
1 01/29/2022 06:19:08 -0.05, -75.20 -0.50, -73.32 215.39 80
2 01/30/2022 18:38:27 0.05, -75.21 -0.70, -78.62 388.95 80
3 01/31/2022 18:22:23 0.05, -75.21 0.30, -74.09 127.10 80
4 02/02/2022 06:44:13 -0.05, -75.20 0.90, -79.36 474.71 80
5 02/03/2022 06:22:49 -0.05, -75.21 -0.10, -74.83 41.93 80
6 02/05/2022 18:26:05 0.05, -75.24 -0.04, -75.63 43.71 80
7 02/06/2022 18:10:02 0.05, -75.25 0.97, -71.10 473.64 80
8 02/08/2022 06:31:51 -0.05, -75.26 0.23, -76.37 126.23 80
9 02/09/2022 06:10:28 -0.04, -75.28 -0.83, -71.85 391.30 80
10 02/10/2022 18:32:27 0.04, -75.31 -0.36, -77.16 210.26 80
11 02/11/2022 18:16:23 0.03, -75.33 0.65, -72.63 307.62 80
